TimeEST,TemperatureF,Dew PointF,Humidity,Sea Level PressureIn,VisibilityMPH,Wind Direction,Wind SpeedMPH,Gust SpeedMPH,PrecipitationIn,Events,Conditions,WindDirDegrees,DateUTC
12:54 AM,51.1,46.0,83,30.22,10.0,North,11.5,-,0.00,,Overcast,360,2012-11-16 05:54:00
1:54 AM,50.0,45.0,83,30.22,10.0,NNW,18.4,23.0,0.00,Rain,Light Rain,340,2012-11-16 06:54:00
2:54 AM,50.0,45.0,83,30.24,10.0,NNW,13.8,-,0.01,,Overcast,340,2012-11-16 07:54:00
3:10 AM,50.0,44.6,82,30.23,10.0,North,12.7,-,N/A,,Overcast,360,2012-11-16 08:10:00
3:54 AM,48.9,44.1,83,30.22,10.0,North,9.2,-,N/A,,Overcast,360,2012-11-16 08:54:00
4:32 AM,48.2,44.6,87,30.23,10.0,NNW,11.5,-,N/A,,Mostly Cloudy,330,2012-11-16 09:32:00
4:54 AM,48.9,44.1,83,30.23,10.0,NNW,13.8,-,N/A,,Partly Cloudy,340,2012-11-16 09:54:00
5:54 AM,50.0,44.1,80,30.24,10.0,NNW,12.7,-,N/A,,Overcast,340,2012-11-16 10:54:00
7:54 AM,48.9,42.1,77,30.27,10.0,NNW,10.4,-,N/A,,Partly Cloudy,330,2012-11-16 12:54:00
8:54 AM,51.1,42.1,71,30.28,10.0,North,11.5,-,N/A,,Clear,350,2012-11-16 13:54:00
9:54 AM,54.0,42.1,64,30.28,10.0,North,12.7,-,N/A,,Scattered Clouds,350,2012-11-16 14:54:00
10:54 AM,55.9,42.1,60,30.29,10.0,North,13.8,-,N/A,,Partly Cloudy,10,2012-11-16 15:54:00
11:54 AM,55.9,42.1,60,30.28,10.0,North,9.2,-,N/A,,Scattered Clouds,10,2012-11-16 16:54:00
12:10 PM,57.2,42.8,59,30.27,10.0,NNE,10.4,-,N/A,,Mostly Cloudy,30,2012-11-16 17:10:00
12:54 PM,55.0,42.1,62,30.28,10.0,North,11.5,-,N/A,,Overcast,10,2012-11-16 17:54:00
1:54 PM,55.0,41.0,59,30.28,10.0,North,10.4,-,N/A,,Overcast,360,2012-11-16 18:54:00
2:54 PM,54.0,39.9,59,30.28,10.0,North,13.8,-,N/A,,Overcast,360,2012-11-16 19:54:00
3:54 PM,52.0,37.0,57,30.30,10.0,North,15.0,-,N/A,,Overcast,10,2012-11-16 20:54:00
4:22 PM,51.8,35.6,54,30.30,10.0,North,11.5,-,N/A,,Overcast,360,2012-11-16 21:22:00
4:54 PM,51.1,36.0,56,30.31,10.0,North,13.8,-,N/A,,Overcast,360,2012-11-16 21:54:00
5:54 PM,50.0,35.1,57,30.33,10.0,North,9.2,-,N/A,,Mostly Cloudy,10,2012-11-16 22:54:00
6:54 PM,48.0,35.1,61,30.34,10.0,North,10.4,-,N/A,,Clear,10,2012-11-16 23:54:00
7:54 PM,48.0,34.0,58,30.35,10.0,North,10.4,-,N/A,,Clear,360,2012-11-17 00:54:00
8:54 PM,46.9,35.1,63,30.37,10.0,North,9.2,-,N/A,,Clear,350,2012-11-17 01:54:00
9:54 PM,46.9,35.1,63,30.37,10.0,North,12.7,-,N/A,,Clear,360,2012-11-17 02:54:00
10:54 PM,46.9,36.0,66,30.36,10.0,North,11.5,-,N/A,,Clear,360,2012-11-17 03:54:00
11:54 PM,46.9,36.0,66,30.36,10.0,North,13.8,-,N/A,,Clear,360,2012-11-17 04:54:00